Simultaneous Nadir Overpasses (SNOs) Predictions

Prediction of SNOs between GOES-15 and METOP-A Satellite Orbit:

Table of predicted SNOs for the next 14.0 days since TLE Epoch: 1/15/2016
Index Date Time (GOES-15) GOES-15 Lat,Lon METOP-A Lat,Lon Distance(km) Time Diff (sec)
1 01/15/2016 18:20:52 -0.01,-134.79 -0.33,-133.41 158.35 80
2 01/17/2016 06:42:33 0.00,-134.87 -0.70,-138.00 356.06 80
3 01/18/2016 06:19:14 0.01,-134.91 0.46,-133.01 216.64 80
4 01/19/2016 18:38:07 -0.00,-134.94 0.56,-137.57 299.29 80
5 01/20/2016 18:20:07 -0.01,-134.98 -0.54,-132.57 273.63 80
6 01/22/2016 06:39:07 -0.00,-135.05 -0.49,-137.16 241.44 80
7 01/23/2016 06:15:49 0.00,-135.08 0.67,-132.18 330.81 80
8 01/24/2016 18:34:40 0.01,-135.10 0.40,-136.73 186.08 80
9 01/25/2016 18:16:42 0.01,-135.13 -0.76,-131.74 386.59 80
10 01/27/2016 06:35:42 -0.02,-135.21 -0.27,-136.33 128.57 80
11 01/28/2016 06:12:23 -0.01,-135.23 0.83,-131.34 443.36 80




NCC Satellite Simultaneous Nadir Overpasses (SNOs) Prediction Service
